Home > Weather > Prudhoe Bay > Past weeks

Flag for U.S.A. Weather for the Past 2 Weeks in Prudhoe Bay, Alaska, U.S.A.

Now
2 °F

Ice fog.


Feels Like: -23 °F
Forecast: -8 / -3 °F
Wind: 29 mph from East

Location: Deadhorse Airport

Current Time: Feb 14, 2016 at 3:18:17 PM

Latest Report: Feb 14, 2016 at 1:53 PM


Visibility: 0 mi

Pressure: 29.68 "Hg

Humidity: 83%

Dew point: -2 °F

Location of Prudhoe BayLocation

Historic Weather in Prudhoe Bay — Graph

°F

Prudhoe Bay Temperature Yesterday

Maximum temperature yesterday: 4 °F (at 1:53 AM)
Minimum temperature yesterday: 1 °F (at 11:53 AM)
Average temperature yesterday: 3 °F

High & Low Weather Summary for the Past Weeks

 TemperatureHumidityPressure
High19 °F (Jan 31, 9:53 AM)91% (Jan 31, 12:53 PM)30.37 "Hg (Jan 31, 12:53 PM)
Low-23 °F (Feb 5, 8:00 PM)69% (Feb 5, 9:53 PM)29.63 "Hg (Feb 13, 3:53 PM)
Average-5 °F80%30.01 "Hg
* Reported Jan 30 12:53 PM — Feb 14 12:53 PM, Prudhoe Bay, Weather by CustomWeather, © 2016

Note: Actual official high and low records may vary slightly from our data, if they occured in-between our weather recording intervals... More about our weather records

Advertising

Prudhoe Bay Weather History for the Previous 24 Hours

 ConditionsComfort  
Time TempWeatherWind HumidityBarometerVisibility
12:53 PM
Sun, Feb 14
3 °FIce fog.30 mph84%29.68 "Hg1 mi
11:53 AM4 °FIce fog.25 mph84%29.68 "Hg1 mi
10:53 AM2 °FIce fog.29 mph88%29.68 "Hg1 mi
9:53 AM3 °FIce fog.31 mph84%29.67 "Hg1 mi
8:53 AM4 °FIce fog.31 mph84%29.66 "Hg1 mi
7:53 AM5 °FIce fog.25 mph87%29.67 "Hg1 mi
6:53 AM4 °FIce fog.32 mph84%29.66 "Hg1 mi
5:53 AM2 °FIce fog.30 mph83%29.66 "Hg1 mi
4:53 AM1 °FLight snow. Ice fog.30 mph87%29.67 "Hg1 mi
4:02 AM1 °FLight snow. Ice fog.33 mph83%29.67 "Hg1 mi
2:53 AM2 °FIce fog.31 mph80%29.67 "Hg1 mi
1:53 AM1 °FIce fog.29 mph83%29.67 "Hg1 mi
12:53 AM1 °FLight snow. Ice fog.29 mph83%29.67 "Hg1 mi
11:53 PM
Sat, Feb 13
2 °FLight snow. Ice fog.30 mph83%29.65 "Hg1 mi
10:53 PM4 °FLight snow. Ice fog.29 mph84%29.65 "Hg1 mi
9:53 PM4 °FLight snow. Ice fog.25 mph84%29.64 "Hg1 mi
8:53 PM4 °FLight snow. Ice fog.37 mph88%29.63 "Hg0 mi
7:53 PM4 °FLight snow. Ice fog.35 mph84%29.64 "Hg0 mi
6:53 PM4 °FLight snow. Ice fog.31 mph84%29.65 "Hg0 mi
6:04 PM4 °FLight snow. Ice fog.37 mph84%29.63 "Hg0 mi
5:53 PM3 °FLight snow. Ice fog.36 mph87%29.65 "Hg0 mi
4:53 PM3 °FLight snow. Ice fog.36 mph87%29.64 "Hg0 mi
3:53 PM3 °FLight snow. Ice fog.37 mph84%29.63 "Hg0 mi
Weather by CustomWeather, © 2016

See weather overviewHow to use our weather pages